This is the latest recevied weather packets stored in our database for station/object K0APR. If no packets are shown the sender has not sent any weather packets the latest 10 day(s).
| Time | Temp. | Humidity | Pressure | Rain* | Wind** | Luminosity | Snow |
|---|---|---|---|---|---|---|---|
| 1788312529 | 22.78° C | 82% | 1012.7 hPa | 0 mm | - | 0 W/m² | - |
| 1788312225 | 23.33° C | 80% | 1013 hPa | 0 mm | - | 0 W/m² | - |
| 1788311921 | 23.33° C | 76% | 1014.4 hPa | 0 mm | - | 0 W/m² | - |
| 1788311621 | 23.33° C | 75% | 1014.7 hPa | 0 mm | - | 0 W/m² | - |
| 1788311320 | 23.89° C | 75% | 1014.4 hPa | 0 mm | - | 0 W/m² | - |
| 1788311016 | 23.33° C | 76% | 1013.7 hPa | 0 mm | - | 0 W/m² | - |
| 1788310715 | 23.89° C | 75% | 1013 hPa | 0 mm | - | 0 W/m² | - |
| 1788310414 | 23.89° C | 75% | 1013 hPa | 0 mm | - | 0 W/m² | - |
| 1788310111 | 23.89° C | 75% | 1013.3 hPa | 0 mm | - | 1 W/m² | - |
| 1788309810 | 23.89° C | 73% | 1013.7 hPa | 0 mm | - | 3 W/m² | - |
| 1788309506 | 23.89° C | 73% | 1013.7 hPa | 0 mm | - | 4 W/m² | - |
| 1788309201 | 24.44° C | 73% | 1013.7 hPa | 0 mm | - | 7 W/m² | - |
| 1788308896 | 24.44° C | 73% | 1013.7 hPa | 0 mm | - | 11 W/m² | - |
| 1788308595 | 24.44° C | 72% | 1013.7 hPa | 0 mm | - | 16 W/m² | - |
| 1788308291 | 25° C | 71% | 1014 hPa | 0 mm | - | 19 W/m² | - |
| 1788307986 | 25° C | 71% | 1014 hPa | 0 mm | - | 22 W/m² | - |
| 1788307681 | 25° C | 70% | 1014 hPa | 0 mm | - | 23 W/m² | - |
| 1788307381 | 25° C | 69% | 1014 hPa | 0 mm | - | 24 W/m² | - |
| 1788307076 | 25° C | 70% | 1014.4 hPa | 0 mm | - | 26 W/m² | - |
| 1788306771 | 25° C | 70% | 1014 hPa | 0 mm | - | 31 W/m² | - |
| 1788306470 | 25° C | 71% | 1014 hPa | 0 mm | - | 38 W/m² | - |
| 1788306165 | 25.56° C | 70% | 1014.4 hPa | 0 mm | - | 43 W/m² | - |
| 1788305860 | 25.56° C | 69% | 1014 hPa | 0 mm | - | 47 W/m² | - |
| 1788305556 | 25.56° C | 69% | 1014 hPa | 0 mm | - | 60 W/m² | - |
| 1788305256 | 25.56° C | 68% | 1014 hPa | 0 mm | - | 65 W/m² | - |
* Rain latest hour (hover to see other rain measurements)
** Current wind speed in m/s (hover to see current wind gust speed)